[[{"header":{"parameterUnit":"m.s-1","parameterCategory":1,"la1":30.2991,"la2":30.254,"lo1":-89.0895,"lo2":-89.0444,"dy":0.0017,"dx":0.0017,"nx":28,"ny":28,"refTime":"2023-09-23T21:00:00:Z","depth":0,"parameterNumber":2,"parameterNumberName":"U-component_of_WINDS"},"data":[0,0,0,0,0,0,0,0,0,0,0,0,0,0,0,0,0,0,0,0,0,0,0,0,0,0,0,0,0,0,0,0,0,0,0,0,0,0,0,0,0,0,0,0,0,0,0,0,0,0,0,0,0,0,0,0,0,0,0.6736,0.6737,0,0.6816,0.6817,0.6818,0.6869,0.687,0.687,0.687,0.6949,0.6951,0.6953,0,0,0,0,0,0,0,0,0,0,0,0,0,0.6622,0.6623,0.6736,0.6737,0.6738,0.6816,0.6817,0.6818,0.6869,0.687,0.687,0.687,0.6949,0.6951,0.6953,0,0,0,0,0,0,0,0,0,0,0,0,0,0.6683,0.6624,0.6736,0.6773,0.6777,0.6816,0.6817,0.6819,0.6869,0.687,0.687,0.687,0.6948,0.6951,0.6953,0.6961,0,0,0.6962,0.6963,0,0,0,0,0,0,0,0,0.668,0.6688,0.6766,0.677,0.6775,0.6833,0.6806,0.6866,0.6869,0.6834,0.687,0.6871,0.691,0.6916,0.693,0.6965,0.6968,0.6962,0.6964,0.6965,0.6966,0,0,0,0,0,0,0,0.6676,0.6684,0.6768,0.6767,0.6773,0.6784,0.6793,0.6818,0.6868,0.6837,0.6841,0.685,0.6913,0.6927,0.6932,0.6969,0.6962,0.6964,0.6966,0.6967,0.7011,0.701,0,0,0,0,0,0,0.6666,0.668,0.6765,0.677,0.6728,0.6785,0.6796,0.6814,0.6868,0.6877,0.685,0.6852,0.6922,0.6929,0.6935,0.6946,0.6965,0.6967,0.6969,0.7011,0.701,0.701,0,0,0,0,0,0,0.6663,0.6673,0.6762,0.6726,0.6739,0.6787,0.6807,0.6815,0.683,0.6878,0.6887,0.6856,0.6923,0.6931,0.6954,0.6949,0.6969,0.6971,0.7012,0.7011,0.701,0.6968,0,0,0,0,0,0,0.666,0.6672,0.6677,0.6726,0.674,0.6781,0.6807,0.6817,0.6835,0.6839,0.6886,0.6894,0.6924,0.6949,0.6956,0.6953,0.6973,0.7012,0.7011,0.701,0.697,0.6966,0.6962,0,0,0,0,0,0.6656,0.6662,0.6677,0.6687,0.6748,0.678,0.6788,0.6824,0.6835,0.6839,0.6869,0.6892,0.6948,0.6951,0.696,0.6957,0.7013,0.7012,0.701,0.6972,0.6967,0.6962,0,0,0,0,0,0,0.6611,0.6669,0.6686,0.6709,0.6739,0.6789,0.6796,0.6818,0.6845,0.6848,0.6889,0.6899,0.6917,0.6939,0.6941,0.6966,0.6983,0.6984,0.6951,0.6946,0.6943,0.6937,0.6976,0,0,0,0,0,0.6603,0.6626,0.6676,0.6691,0.6705,0.6747,0.6763,0.6787,0.682,0.6833,0.6865,0.6894,0.6918,0.6934,0.6959,0.6973,0.6982,0.6975,0.6971,0.6968,0.6968,0.6974,0.6971,0.7006,0.7006,0.7006,0,0,0.6589,0.6623,0.6635,0.6682,0.6709,0.673,0.6758,0.678,0.6795,0.6836,0.6859,0.6883,0.6918,0.6936,0.6945,0.6955,0.696,0.6967,0.6964,0.6966,0.6973,0.6969,0.6966,0.7006,0.7006,0.7006,0,0,0.6573,0.6602,0.6617,0.6642,0.6681,0.6709,0.6712,0.6757,0.6775,0.6798,0.6829,0.6846,0.6888,0.6911,0.6928,0.6917,0.6938,0.6923,0.6904,0.6909,0.6906,0.6904,0.6898,0.6895,0.6923,0.6923,0.6923,0,0.6549,0.6584,0.6621,0.664,0.6659,0.6696,0.671,0.6732,0.6777,0.6788,0.6799,0.6849,0.6876,0.6898,0.6895,0.6909,0.6912,0.6919,0.6904,0.6902,0.69,0.6895,0.6893,0.6921,0.6921,0.6921,0.6922,0,0.6552,0.6574,0.6581,0.6623,0.6643,0.6659,0.6697,0.6711,0.6733,0.6758,0.678,0.6813,0.6844,0.6851,0.6873,0.6875,0.688,0.6896,0.6915,0.6894,0.689,0.6888,0.6918,0.6919,0.6919,0.692,0,0,0.6513,0.6573,0.6574,0.6592,0.6637,0.6654,0.667,0.6701,0.6711,0.674,0.6753,0.6786,0.68,0.682,0.6844,0.6849,0.6834,0.6865,0.6866,0.6857,0.6836,0.6823,0.682,0.6849,0.6849,0.6848,0.6833,0,0.6502,0.6535,0.6567,0.6587,0.6607,0.6641,0.6655,0.6682,0.6705,0.6724,0.6749,0.6771,0.679,0.6801,0.6808,0.6835,0.6831,0.6836,0.686,0.686,0.6849,0.6818,0.6805,0.6788,0.6831,0.6831,0.6831,0,0.6496,0.6522,0.6544,0.6583,0.6592,0.6604,0.6633,0.6651,0.6681,0.6698,0.6717,0.6742,0.6758,0.6774,0.6796,0.6799,0.681,0.6824,0.6824,0.6827,0.6844,0.6819,0.6784,0.6781,0.6829,0.6829,0.6829,0,0.6463,0.6503,0.6521,0.6536,0.6582,0.6589,0.6609,0.6639,0.6654,0.6679,0.6688,0.6714,0.6728,0.6746,0.6776,0.6785,0.6793,0.6812,0.6806,0.6805,0.6806,0.6806,0.6771,0.6814,0.6814,0.6814,0.6814,0,0.6448,0.646,0.6507,0.6517,0.653,0.6566,0.6577,0.6599,0.6625,0.6639,0.667,0.6682,0.6722,0.6738,0.6761,0.6774,0.678,0.6792,0.6798,0.6789,0.6787,0.6797,0.6798,0.6814,0.6814,0.6814,0.6814,0,0.6414,0.6446,0.6467,0.6508,0.6519,0.6526,0.6561,0.6571,0.6595,0.6612,0.6618,0.6655,0.6675,0.6706,0.6736,0.6752,0.676,0.677,0.675,0.6753,0.6744,0.6744,0.6714,0.6711,0.6757,0.6756,0.6756,0,0.6403,0.6412,0.6453,0.6465,0.6483,0.6502,0.6516,0.655,0.6564,0.6597,0.6602,0.6625,0.6645,0.6675,0.6703,0.6725,0.6736,0.6724,0.6739,0.6729,0.6734,0.6732,0.6732,0.672,0.6719,0.6719,0.6718,0,0.6378,0.6392,0.6413,0.6438,0.6454,0.6476,0.6499,0.6506,0.6544,0.6558,0.6578,0.6594,0.6622,0.6643,0.6669,0.6687,0.6708,0.6713,0.6712,0.6703,0.669,0.6695,0.6739,0.6714,0.6714,0.6714,0.6715,0.6715,0.6355,0.6363,0.6392,0.6413,0.6433,0.6453,0.6464,0.6488,0.6506,0.6532,0.655,0.6569,0.6595,0.6631,0.6648,0.6661,0.6671,0.6671,0.667,0.667,0.6665,0.6688,0.6666,0.6667,0.6667,0.6667,0.6667,0,0.633,0.635,0.6368,0.6398,0.6413,0.6432,0.6457,0.6468,0.6484,0.6507,0.6525,0.6547,0.6566,0.6595,0.6616,0.6621,0.6631,0.6625,0.6625,0.6628,0.6656,0.6654,0.6617,0.6617,0.6617,0.6617,0.6617,0.6617,0.632,0.6334,0.6351,0.6375,0.6394,0.6413,0.6425,0.6442,0.646,0.6483,0.6499,0.6517,0.6541,0.6564,0.6581,0.6589,0.6595,0.6586,0.6596,0.6622,0.6627,0.6631,0.6629,0.6587,0.6587,0.6567,0.6566,0.6566]},{"header":{"parameterUnit":"m.s-1","parameterCategory":1,"la1":30.2991,"la2":30.254,"lo1":-89.0895,"lo2":-89.0444,"dy":0.0017,"dx":0.0017,"nx":28,"ny":28,"refTime":"2023-09-23T21:00:00:Z","depth":0,"parameterNumber":3,"parameterNumberName":"V-component_of_WINDS"},"data":[0,0,0,0,0,0,0,0,0,0,0,0,0,0,0,0,0,0,0,0,0,0,0,0,0,0,0,0,0,0,0,0,0,0,0,0,0,0,0,0,0,0,0,0,0,0,0,0,0,0,0,0,0,0,0,0,0,0,3.3389,3.339,0,3.3475,3.3476,3.3477,3.3567,3.3568,3.3569,3.3571,3.3652,3.3653,3.3654,0,0,0,0,0,0,0,0,0,0,0,0,0,3.3294,3.3296,3.3389,3.339,3.3391,3.3475,3.3476,3.3477,3.3567,3.3568,3.357,3.3571,3.3652,3.3653,3.3654,0,0,0,0,0,0,0,0,0,0,0,0,0,3.3353,3.3296,3.3389,3.3446,3.3452,3.3475,3.3476,3.3477,3.3566,3.3568,3.357,3.3572,3.3651,3.3653,3.3654,3.3625,0,0,3.3659,3.3659,0,0,0,0,0,0,0,0,3.335,3.3356,3.3436,3.3442,3.3449,3.3512,3.3473,3.3527,3.3566,3.3523,3.3571,3.3573,3.3603,3.3609,3.3621,3.3629,3.3632,3.3659,3.366,3.366,3.3661,0,0,0,0,0,0,0,3.3345,3.3353,3.3423,3.3437,3.3445,3.3465,3.3475,3.3483,3.3551,3.3527,3.3533,3.3543,3.3607,3.3619,3.3623,3.3633,3.3659,3.366,3.3661,3.3661,3.362,3.3618,0,0,0,0,0,0,3.3334,3.3349,3.342,3.3425,3.3403,3.3465,3.3477,3.349,3.3551,3.3563,3.3541,3.3547,3.3616,3.3621,3.3626,3.3595,3.366,3.3662,3.3662,3.3622,3.3619,3.3617,0,0,0,0,0,0,3.3331,3.3339,3.3417,3.3389,3.3401,3.3465,3.3479,3.349,3.3503,3.3562,3.3574,3.3541,3.3617,3.3624,3.3625,3.3599,3.3662,3.3664,3.3624,3.3621,3.3618,3.3533,0,0,0,0,0,0,3.3328,3.3338,3.3329,3.3388,3.3402,3.3415,3.3477,3.3491,3.3506,3.3514,3.3566,3.3576,3.3619,3.3622,3.3626,3.3602,3.3665,3.3627,3.3623,3.3619,3.3538,3.3527,3.3518,0,0,0,0,0,3.3325,3.3301,3.3329,3.3337,3.3393,3.3414,3.3421,3.3474,3.3503,3.3494,3.3532,3.3574,3.3602,3.3621,3.3627,3.3603,3.3628,3.3624,3.3619,3.3543,3.353,3.3518,0,0,0,0,0,0,3.3235,3.331,3.3341,3.3336,3.3368,3.3429,3.3419,3.3458,3.3481,3.3487,3.3549,3.356,3.3552,3.3578,3.3598,3.3577,3.3621,3.3617,3.3561,3.3549,3.3539,3.3532,3.3666,0,0,0,0,0,3.3215,3.3228,3.3292,3.3281,3.3296,3.3354,3.3365,3.3403,3.3438,3.3451,3.3489,3.3519,3.3534,3.3543,3.3561,3.3543,3.3554,3.3529,3.3519,3.351,3.3506,3.3496,3.3485,3.3602,3.3602,3.3603,0,0,3.3173,3.3216,3.322,3.3264,3.3294,3.3303,3.3365,3.3373,3.338,3.3452,3.3455,3.3483,3.352,3.3511,3.3509,3.3532,3.3476,3.3504,3.3497,3.3498,3.349,3.3479,3.3469,3.3599,3.36,3.36,0,0,3.3102,3.3137,3.3131,3.3159,3.3203,3.3242,3.324,3.3295,3.3317,3.3322,3.3375,3.3383,3.3409,3.3433,3.3448,3.3384,3.3423,3.3388,3.3334,3.3324,3.3315,3.3307,3.3283,3.3273,3.3383,3.3383,3.3383,0,3.3044,3.3063,3.3122,3.3127,3.3144,3.3211,3.3204,3.3227,3.3273,3.3282,3.3309,3.3341,3.3371,3.3367,3.3352,3.3363,3.3361,3.3382,3.3312,3.3305,3.3298,3.3275,3.3266,3.3379,3.3379,3.338,3.338,0,3.2989,3.3001,3.299,3.3035,3.3051,3.3049,3.3106,3.3114,3.315,3.3185,3.3187,3.3225,3.3251,3.3253,3.3287,3.3253,3.3266,3.3301,3.3346,3.3281,3.3261,3.3253,3.3372,3.3374,3.3375,3.3376,0,0,3.2864,3.2941,3.2936,3.2957,3.3009,3.3019,3.3019,3.3046,3.3051,3.308,3.308,3.31,3.3132,3.315,3.3187,3.3178,3.3123,3.3215,3.3216,3.3195,3.3085,3.3057,3.3047,3.3149,3.3148,3.3147,3.3082,0,3.2801,3.2808,3.286,3.2851,3.2862,3.2925,3.2925,3.2956,3.2988,3.3,3.3035,3.3047,3.309,3.3101,3.3095,3.3131,3.3101,3.3137,3.3148,3.3147,3.3135,3.3036,3.3008,3.2944,3.3074,3.3073,3.3072,0,3.2728,3.2755,3.2747,3.2799,3.2805,3.2804,3.2832,3.2843,3.2878,3.2902,3.2921,3.2964,3.2965,3.3008,3.3009,3.3032,3.3039,3.3057,3.3056,3.3058,3.3105,3.3034,3.2925,3.2915,3.306,3.3061,3.3062,0,3.2636,3.2669,3.2669,3.2684,3.2745,3.2742,3.2767,3.2805,3.2817,3.284,3.2848,3.2871,3.2883,3.2898,3.2945,3.2972,3.2939,3.2987,3.2957,3.2956,3.2947,3.2946,3.2836,3.2953,3.2953,3.2954,3.2954,0,3.2559,3.2552,3.2628,3.2627,3.262,3.2679,3.2669,3.2699,3.2731,3.2736,3.2791,3.2794,3.2856,3.2865,3.2901,3.2895,3.29,3.2918,3.2927,3.2912,3.291,3.2917,3.2922,3.2951,3.2952,3.2952,3.2953,0,3.2455,3.2506,3.2509,3.2566,3.258,3.2572,3.2619,3.262,3.2656,3.266,3.2665,3.272,3.2733,3.2781,3.2805,3.283,3.2811,3.2831,3.28,3.2806,3.2773,3.2775,3.2662,3.265,3.2776,3.2775,3.2774,0,3.2402,3.2398,3.2455,3.2463,3.2485,3.2497,3.251,3.2567,3.2578,3.2617,3.2611,3.2629,3.2647,3.2664,3.2705,3.2723,3.2742,3.2702,3.2745,3.273,3.274,3.2739,3.2738,3.2691,3.269,3.2689,3.2687,0,3.2302,3.2328,3.2346,3.2371,3.2386,3.2409,3.2434,3.2437,3.25,3.2509,3.2524,3.2537,3.2562,3.2578,3.2603,3.2626,3.2666,3.2674,3.2667,3.2651,3.2633,3.2641,3.2773,3.2676,3.2677,3.2678,3.2678,3.2679,3.2221,3.222,3.2259,3.2277,3.2302,3.2324,3.2327,3.2364,3.2378,3.2404,3.2436,3.2446,3.2479,3.2517,3.2537,3.2544,3.2566,3.2558,3.2555,3.2552,3.2544,3.2633,3.2549,3.2549,3.2549,3.255,3.255,0,3.2123,3.2152,3.2167,3.2202,3.2214,3.2254,3.2283,3.2291,3.23,3.2328,3.2344,3.236,3.2376,3.2417,3.2436,3.2434,3.2452,3.2437,3.2437,3.2441,3.2524,3.2526,3.2421,3.2421,3.2421,3.2421,3.2421,3.2421,3.2074,3.2073,3.2102,3.2113,3.2141,3.2153,3.2167,3.2187,3.221,3.2225,3.2239,3.2267,3.23,3.2322,3.2337,3.2348,3.2352,3.2329,3.2347,3.2423,3.2435,3.2447,3.245,3.233,3.233,3.2263,3.2263,3.2262]}]]